STARLINK-36534, 67496

Orbit data source: Space-Track

STARLINK-36534, 67496 is a payload satellite owned by SpaceX/Seattle (US) in LEO that was launched on Sun, 18 Jan 2026 UTC via an FALCON 9 launch vehicle from the Air Force Eastern Test Range (AFETR). Payload-class satellites include a variety of spacecraft equipped with specific instruments for various scientific and technological missions. These include communications satellites like Starlink; space stations such as the ISS; scientific satellites like the Hubble; Earth observation satellites from companies like Planet Labs, Umbra, and HawkEye 360; GPS; miniature CubeSats for education and research; and military/defense satellites.

Loading next visibility...
Identifier
67496, 2026-012D
Orbit
LEO
Country
Flag of USUS
Related business
Manufacturer
SpaceX/Seattle
Mission
Operational Commercial Communications
Bus & Motor
STARLINK V2MO, Unknown motor
Mass
575 kg wet, ~530 kg dry
Launch date (UTC)
2026-01-18 (5 months ago)
Launch vehicle
FALCON 9
Launch site
Air Force Eastern Test Range (AFETR)
Object type
Payload
Rocket body
Debris
Shape & HBR
Box + 2 Pan, 17.7 m
Radar Cross Section
36.964 m², Large (>1 m²)

Expand to show TLE details & history
Last TLE update: 1 day ago

TLE from 1 day ago
0 STARLINK-36534
1 67496U 26012D   26170.84893919  .00016829  00000-0  61910-3 0  9996
2 67496  43.0035  97.6539 0001298 265.9041  94.1662 15.27611170 23380
Epoch: 2026-06-19T20:22Z
TLE epoch observation values (Epoch: 2026-06-19T20:22:28.346Z)
Latitude
-0.00002°
Longitude
-116.03625°
Altitude
482.796 km
Speed
7.626 km/s
True Right ascension
06h 30m 36s
True Declination
0° 00' 00"
Sunlit
Object was in daylight at epoch
Visualization orbit readout
Latitude
Unknown
Longitude
Unknown
Altitude
Unknown
Speed
Unknown
Apparent Right ascension
Unknown
Apparent Declination
Unknown
Sunlit
N/A
Visualization observer readout
Local Sidereal Time
08:41:58
Azimuth
Unknown
Elevation
Unknown
Doppler factor
Unknown
Orbital elements
Apogee altitude
485.791 km
Perigee altitude
484.01 km
Semi-major axis
6,863.037 km
Eccentricity
0.00013
Inclination
43.0035°
RAAN
97.6539°
Arg. of periapsis
265.9041°
True anomaly
94.18103°
Mean anomaly
94.1662°
Eccentric anomaly
94.17362°
Mean motion
3.81741 °/min
Orbital period
94.3 mins
BSTAR
0.0006191
Loading maneuver chart data...
Computing Atmospheric mass density...
Loading historical data...
Loading historical data...
Loading historical data...
Loading historical data...
Loading historical data...
Loading historical data...
Loading historical data...

Documentation

Showing up to 5 results
|